Tracking 30995 objects as of 6-Jul-2025
HD Live streaming from Space Station
objects crossing your sky now

CENTISPACE-1 S4

Track CENTISPACE-1 S4 now!
10-day predictions


NORAD ID: 53758
Int'l Code: 2022-108B
Perigee: 689.2 km
Apogee: 703.9 km
Inclination: 53.5 °
Period: 98.6 minutes
Semi major axis: 7067 km
RCS: Unknown
Launch date: September 6, 2022
Source: People's Republic of China (PRC)
Launch site: Jiuquan Satellite Launch Center, China (JSC)
Your satellite tracking list
Your tracking list is empty




NASA's NSSDC Master Catalog

Two Line Element Set (TLE):
1 53758U 22108B   25186.82434841  .00000541  00000-0  14723-3 0  9997
2 53758  53.5311  45.8496 0010416 122.9003 237.2976 14.61173863150915
Source of the keplerian elements: AFSPC